Weather History for KVCT - May, 2013

Change the Weather History Date:

Saturday, May 4, 2013

  Actual Average Record
Temperature  
Mean Temperature 64 °F 74 °F  
Max Temperature 80 °F 84 °F 95 °F (1951)
Min Temperature 47 °F 65 °F 45 °F (1954)
Degree Days  
Heating Degree Days 1 0  
Month to date heating degree days 8 0  
Since 1 July heating degree days 1023 1248  
Cooling Degree Days 0 9  
Month to date cooling degree days 13 36  
Year to date cooling degree days 295 325  
Growing Degree Days 13 (Base 50)    
Moisture  
Dew Point 41 °F    
Average Humidity 49    
Maximum Humidity 77    
Minimum Humidity 20    
Precipitation  
Precipitation 0.00 in 0.16 in 2.91 in (1966)
Month to date precipitation T 0.61  
Year to date precipitation 7.20 10.80  
Snow  
Snow 0.00 in - - ()
Month to date snowfall 0.0  
Since 1 July snowfall 0.0  
Snow Depth 0.00 in    
Sea Level Pressure  
Sea Level Pressure 30.01 in    
Wind  
Wind Speed 8 mph (SSW)    
Max Wind Speed 17 mph    
Max Gust Speed 25 mph    
Visibility 10 miles    
Events      
T = Trace of Precipitation, MM = Missing Value Source: NWS Daily Summary

Daily Weather History Graph

Daily Weather History Graph

Search for Another Location

Airport or City:

Trip Planner

Search our weather history database for the weather conditions in past years. The results will help you decide how hot, cold, wet, or windy it might be!

Date:

Astronomy

May. 04, 2013 Rise Set
Actual Time 6:43 AM CDT 8:05 PM CDT
Civil Twilight 6:18 AM CDT 8:30 PM CDT
Nautical Twilight 5:48 AM CDT 9:00 PM CDT
Astronomical Twilight 5:17 AM CDT 9:32 PM CDT
Moon 3:17 AM CDT (5/4) 3:27 PM CDT (5/4)
Length of Visible Light 14h 11m
Length of Day
13h 21m
Waning Crescent, 27% of the Moon is Illuminated
May 4
Waning Crescent
May 9
New
May 17
First Quarter
May 24
Full
May 31
Last Quarter

Hourly Weather History & Observations

Time (CDT) Temp. Dew Point Humidity Pressure Visibility Wind Dir Wind Speed Gust Speed Precip Events Conditions
12:51 AM 51.1 °F 44.1 °F 77% 30.11 in 10.0 mi Calm Calm - N/A   Clear
1:51 AM 48.9 °F 39.9 °F 71% 30.09 in 10.0 mi South 4.6 mph - N/A   Clear
2:51 AM 48.0 °F 37.9 °F 68% 30.07 in 10.0 mi South 5.8 mph - N/A   Clear
3:51 AM 48.9 °F 36.0 °F 61% 30.05 in 10.0 mi South 4.6 mph - N/A   Clear
4:51 AM 46.9 °F 39.9 °F 77% 30.04 in 10.0 mi SSW 8.1 mph - N/A   Clear
5:51 AM 46.9 °F 39.0 °F 74% 30.04 in 10.0 mi SSW 5.8 mph - N/A   Clear
6:51 AM 46.9 °F 39.9 °F 77% 30.05 in 10.0 mi SSW 5.8 mph - N/A   Clear
7:51 AM 54.0 °F 44.1 °F 69% 30.06 in 10.0 mi SSW 5.8 mph - N/A   Clear
8:51 AM 61.0 °F 46.0 °F 58% 30.07 in 10.0 mi SW 9.2 mph - N/A   Clear
9:51 AM 66.9 °F 42.1 °F 40% 30.06 in 10.0 mi SSW 12.7 mph - N/A   Clear
10:51 AM 71.1 °F 39.9 °F 32% 30.07 in 10.0 mi SW 11.5 mph - N/A   Clear
11:51 AM 73.0 °F 37.9 °F 28% 30.05 in 10.0 mi SW 11.5 mph 20.7 mph N/A   Clear
12:51 PM 75.0 °F 36.0 °F 24% 30.02 in 10.0 mi WSW 8.1 mph 17.3 mph N/A   Clear
1:51 PM 78.1 °F 37.0 °F 23% 29.99 in 10.0 mi SW 11.5 mph 17.3 mph N/A   Clear
2:51 PM 77.0 °F 36.0 °F 23% 29.97 in 10.0 mi SSW 4.6 mph - N/A   Clear
3:51 PM 79.0 °F 37.0 °F 22% 29.94 in 10.0 mi WSW 10.4 mph - N/A   Clear
4:51 PM 80.1 °F 36.0 °F 20% 29.92 in 10.0 mi WSW 9.2 mph - N/A   Clear
5:51 PM 80.1 °F 36.0 °F 20% 29.90 in 10.0 mi West 5.8 mph - N/A   Clear
6:51 PM 79.0 °F 37.0 °F 22% 29.90 in 10.0 mi SSW 5.8 mph - N/A   Clear
7:51 PM 71.1 °F 50.0 °F 47% 29.91 in 10.0 mi South 11.5 mph - N/A   Clear
8:51 PM 66.9 °F 44.1 °F 44% 29.93 in 10.0 mi South 11.5 mph - N/A   Clear
9:51 PM 63.0 °F 46.0 °F 54% 29.96 in 10.0 mi SSW 9.2 mph - N/A   Clear
10:51 PM 62.1 °F 48.0 °F 60% 29.97 in 10.0 mi SSW 8.1 mph - N/A   Clear
11:51 PM 59.0 °F 48.9 °F 69% 29.97 in 10.0 mi SSW 8.1 mph - N/A   Clear